Regional Weather Roundup
Issued by NWS

Home | Current Version | Previous Version | Graphics & Text | Print | Product List | Glossary On
Versions: 1 2 3 4 5 6 7 8 9 10 11 12 13 14 15 16 17 18 19 20 21 22 23 24 25 26 27 28 29 30 31 32 33 34 35 36 37 38 39 40 41 42 43 44 45 46 47 48 49 50
000
ASUS45 KCYS 241410
RWRWY

WYOMING REGIONAL WEATHER ROUNDUP
NATIONAL WEATHER SERVICE CHEYENNE WY
800 AM MDT SUN JUL 24 2016

NOTE:  "FAIR" INDICATES FEW OR NO CLOUDS BELOW 12,000 FEET
WITH NO SIGNIFICANT WEATHER AND/OR OBSTRUCTIONS TO VISIBILITY.

WYZ001-241500-
YELLOWSTONE NATIONAL PARK

CITY           SKY/WX    TMP DP  RH WIND       PRES   REMARKS
LK YELLOWSTONE   N/A     46  39  76 CALM      30.37S
W YELLOWSTONE  NOT AVBL

$$
WYZ002>013-054>058-071-098>099-241500-
NORTHERN WYOMING

CITY           SKY/WX    TMP DP  RH WIND       PRES   REMARKS
JACKSON        SUNNY     46  30  53 CALM      30.31R
CODY           FAIR      63  39  42 CALM      30.20R
GREYBULL       FAIR      65  40  39 S3        30.14R
WORLAND        FAIR      67  37  33 CALM      30.16R
SHERIDAN       PTSUNNY   69  45  41 E6        30.13R
BUFFALO        FAIR      67  39  35 SE10      30.21R
GILLETTE       PTSUNNY   66  47  50 VRB5      30.17R
HULETT         CLOUDY    68  45  42 CALM      30.18R
NEWCASTLE      FAIR      70  36  28 SW3       30.17R

$$
WYZ014>020-022>026-101>103-241500-
CENTRAL WYOMING

CITY           SKY/WX    TMP DP  RH WIND       PRES   REMARKS
BIG PINEY      FAIR      47  30  51 CALM      30.34R
PINEDALE       FAIR      46  30  53 NW5       30.33S
DUBOIS         HAZE      46  25  42 NW10      30.32R VSB 1
LANDER         FAIR      60  38  43 CALM      30.22R
RIVERTON       FAIR      66  35  31 SE5       30.23R
CASPER         FAIR      64  39  39 N7        30.22R
DOUGLAS          N/A    N/A N/A N/A MISG      30.21R

$$
WYZ021-027>030-104>119-241500-
SOUTHERN WYOMING

CITY           SKY/WX    TMP DP  RH WIND       PRES   REMARKS
EVANSTON       FAIR      57  24  28 CALM      30.31R
KEMMERER         N/A     54  28  37 N8        30.33S
FORT BRIDGER   FAIR      59  26  28 NW3       30.34R
ROCK SPRINGS   FAIR      61  33  35 NE5       30.30R
DIXON          FAIR      61  40  45 E8        30.31R
RAWLINS        FAIR      63  25  23 W9        30.30R
SARATOGA       FAIR      59  43  55 CALM      30.30S
LARAMIE        FAIR      65  43  44 E5        30.29R
CHEYENNE       FAIR      69  51  52 SE7       30.21R
TORRINGTON     FAIR      73  52  47 E13       30.10R
PINE BLUFFS    FAIR      64  54  68 E14G24    30.16S

$$



USA.gov is the U.S. government's official web portal to all federal, state and local government web resources and services.